Погода в Уэуэтенанго

Гватемала     15°16′57″N   91°28′10″W
темп.,
°C
ветер,
м/с
пор.,
м/с
влажн.,
%
обл.,
%
осадки,
мм/ч
давл.,
гПа
погр.,
м
16 апреля, пт
пт1600:00+15ссз117117 0.2 101610
03:00+13зсз11815 0.0 101416
06:00+13зсз1186100 0.0 101512
09:00+21ююв114977 0.0 1014871
12:00+27в12275 0.0 10102517
15:00+26с2332100 0.2 10072147
18:00+17юв1273100 2.1 1012109
21:00+15ссв1184100 0.6 101516
17 апреля, сб
сб1700:00+15зсз2285100 0.6 101542
03:00+14зсз2286100 0.0 101433
06:00+13зсз1186100 0.0 101513
09:00+21юв1153100 0.0 1014814
12:00+28в123378 0.0 10102401
15:00+21з3555100 0.8 1010898
18:00+18в3475100 3.9 1012119
21:00+15вюв11879 1.2 101614
18 апреля, вс
вс1800:00+14зсз12875 1.2 101623
03:00+14зсз228895 0.0 101433
06:00+13зсз128923 0.0 101631
09:00+21юв01565 0.1 1015844
12:00+25всв323964 0.3 10112267
15:00+21юз2354100 0.8 1010583
18:00+17всв118093 3.8 1013100
21:00+16зсз128568 2.1 101692
19 апреля, пн
пн1900:00+14сз01875 2.2 101610
03:00+14ю018868 0.2 101532
06:00+14ююв0090100 0.3 101619
09:00+19вюв226677 0.0 1016797
12:00+24вюв334355 0.3 10121998
15:00+20ссв346199 1.3 1011773
18:00+16с128388 4.7 1014107
21:00+16ссв1183100 2.4 101630
20 апреля, вт
вт2000:00+14ссв018951 2.4 101611
03:00+13с0191100 0.0 101516
06:00+13сз1191100 0.0 101615
09:00+20в116433 0.1 1016617
12:00+24в224593 1.2 10132050
15:00+20ссв1362100 1.6 1011101
18:00+18зсз1271100 5.3 101323
21:00+16зсз2383100 3.7 101796